Cozumel Airport, Mexico

5:07 AM EST on February 06, 2016 (GMT -0500)
Cozumel International

Weather History for MMCZ - February, 2012

Change the Weather History Date:

Thursday, February 23, 2012

  Actual Average Record
Temperature  
Mean Temperature 71 °F -  
Max Temperature 80 °F 83 °F 86 °F (1997)
Min Temperature 62 °F 70 °F 62 °F (2012)
Cooling Degree Days 6    
Growing Degree Days 21 (Base 50)    
Moisture  
Dew Point 67 °F    
Average Humidity 84    
Maximum Humidity 100    
Minimum Humidity 69    
Precipitation  
Precipitation 0.00 in - - ()
Sea Level Pressure  
Sea Level Pressure 29.93 in    
Wind  
Wind Speed 4 mph ()    
Max Wind Speed 14 mph    
Max Gust Speed 20 mph    
Visibility 7.4 miles    
Events      
Averages and records for this station are not official NWS values.
T = Trace of Precipitation, MM = Missing Value Source: Averaged Metar Reports

Daily Weather History Graph

Daily Weather History Graph

Search for Another Location

Airport or City:

Trip Planner

Search our weather history database for the weather conditions in past years. The results will help you decide how hot, cold, wet, or windy it might be!

Date:

Astronomy

Feb. 23, 2012 Rise Set
Actual Time 6:12 AM CST 5:49 PM CST
Civil Twilight 5:50 AM CST 6:12 PM CST
Nautical Twilight 5:24 AM CST 6:38 PM CST
Astronomical Twilight 4:58 AM CST 7:03 PM CST
Moon 6:59 AM CST (2/23) 7:29 PM CST (2/23)
Length of Visible Light 12h 22m
Length of Day
11h 37m
Waxing Crescent, 3% of the Moon is Illuminated
Feb 23
Waxing Crescent
Feb 29
First Quarter
Mar 8
Full
Mar 14
Last Quarter
Mar 22
New

Hourly Weather History & Observations

Time (CST) Temp. Heat Index Dew Point Humidity Pressure Visibility Wind Dir Wind Speed Gust Speed Precip Events Conditions
12:52 AM 64.4 °F - 64.4 °F 100% 29.96 in 7.0 mi Calm Calm - N/A   Partly Cloudy
1:40 AM 62.6 °F - 62.6 °F 100% 29.95 in 7.0 mi Calm Calm - N/A   Partly Cloudy
2:44 AM 64.4 °F - 64.4 °F 100% 29.96 in 7.0 mi Calm Calm - N/A   Clear
3:46 AM 64.4 °F - 64.4 °F 100% 29.92 in 7.0 mi Calm Calm - N/A   Clear
4:40 AM 64.4 °F - 64.4 °F 100% 29.92 in 7.0 mi Calm Calm - N/A   Clear
5:48 AM 64.4 °F - 64.4 °F 100% 29.90 in 7.0 mi SE 4.6 mph - N/A   Partly Cloudy
6:41 AM 68.0 °F - 66.2 °F 94% 29.94 in 7.0 mi ESE 3.5 mph - N/A   Partly Cloudy
7:43 AM 71.6 °F - 69.8 °F 94% 29.96 in 8.0 mi ESE 4.6 mph - N/A   Partly Cloudy
8:46 AM 77.0 °F - 69.8 °F 78% 29.99 in 8.0 mi SE 11.5 mph - N/A   Partly Cloudy
9:53 AM 78.8 °F - 69.8 °F 74% 29.99 in 8.0 mi SE 8.1 mph 19.6 mph N/A   Scattered Clouds
10:43 AM 78.8 °F - 69.8 °F 74% 29.98 in 8.0 mi SE 13.8 mph - N/A   Mostly Cloudy
11:48 AM 78.8 °F - 69.8 °F 74% 29.92 in 8.0 mi SE 6.9 mph 18.4 mph N/A   Mostly Cloudy
12:45 PM 78.8 °F - 69.8 °F 74% 29.93 in 8.0 mi SE 6.9 mph 18.4 mph N/A   Mostly Cloudy
1:44 PM 80.6 °F 83.9 °F 69.8 °F 70% 29.92 in 8.0 mi NE 13.8 mph - N/A   Mostly Cloudy
2:42 PM 78.8 °F - 68.0 °F 69% 29.89 in 8.0 mi SSE 13.8 mph - N/A   Scattered Clouds
3:43 PM 77.0 °F - 68.0 °F 74% 29.88 in 8.0 mi SSE 13.8 mph - N/A   Scattered Clouds
4:43 PM 77.0 °F - 68.0 °F 74% 29.88 in 8.0 mi SE 11.5 mph - N/A   Scattered Clouds
5:46 PM 75.2 °F - 68.0 °F 78% 29.86 in 7.0 mi SE 4.6 mph - N/A   Scattered Clouds
6:51 PM 75.2 °F - 68.0 °F 78% 29.89 in 7.0 mi SE 5.8 mph - N/A   Scattered Clouds
7:42 PM 71.6 °F - 68.0 °F 88% 29.92 in 7.0 mi SE 4.6 mph - N/A   Scattered Clouds
8:42 PM 71.6 °F - 66.2 °F 83% 29.94 in 7.0 mi SE 5.8 mph - N/A   Scattered Clouds
9:40 PM 71.6 °F - 66.2 °F 83% 29.93 in 7.0 mi SE 4.6 mph - N/A   Partly Cloudy
10:44 PM 71.6 °F - 66.2 °F 83% 29.92 in 7.0 mi SE 5.8 mph - N/A   Clear
11:40 PM 71.6 °F - 66.2 °F 83% 29.89 in 7.0 mi SE 4.6 mph - N/A   Scattered Clouds